Погода в Красном Эхе

Россия / Владимирская область     55°47′29″N   40°42′18″E
темп.,
°C
ветер,
м/с
пор.,
м/с
влажн.,
%
обл.,
%
осадки,
мм/ч
давл.,
гПа
погр.,
м
6 мая, чт
чт600:00+8ююз2697100 1.3 1009210
03:00+7ю379776 1.8 1010185
06:00+7ю31093100 0.0 1009269
09:00+13ю51177100 0.0 1009552
12:00+15ю51260100 0.0 10081527
15:00+16ю71560100 0.7 10082002
18:00+14ююз81561100 0.2 10061823
21:00+10юз51286100 0.6 10081036
7 мая, пт
пт700:00+9юз4995100 1.6 1008811
03:00+7юз2795100 1.9 1010281
06:00+7юз3894100 0.0 1011468
09:00+10зюз47645 0.0 10121036
12:00+13зюз58385 0.0 10132300
15:00+15зюз473310 0.0 10142636
18:00+13ююз36445 0.0 1014812
21:00+8ю386861 0.0 1016134
8 мая, сб
сб800:00+7ю31167100 0.0 1015241
03:00+7ююв41269100 0.0 1015326
06:00+8ююв51467100 0.0 1013524
09:00+12ююв61364100 0.0 1011833
12:00+12ююв71570100 0.6 10091622
15:00+10ююв61490100 2.5 10061016
18:00+11ю51297100 2.6 1004909
21:00+11юз51096100 5.9 1004895
9 мая, вс
вс900:00+8юз51093100 2.1 1006780
03:00+4зюз51090100 2.1 1010909
06:00+5зюз4988100 0.0 1012995
09:00+6з4775100 0.0 10151101
12:00+10зсз4554100 0.0 10171449
15:00+10сз4556100 0.0 10191464
18:00+9с2564100 0.0 10211129
21:00+5ссв118382 0.0 102410
10 мая, пн
пн1000:00+4ссз11883 0.0 102510
03:00+2с22930 0.0 102720
06:00+5с24816 0.0 1028122
09:00+11ссв24519 0.0 1029932
12:00+14ссв223916 0.0 10291609
15:00+16ссв22366 0.0 10281702
18:00+15с234917 0.0 1028193
21:00+8св22692 0.0 103010